Regional Weather Roundup
Issued by NWS

Home | Current Version | Previous Version | Graphics & Text | Print | Product List | Glossary On
Versions: 1 2 3 4 5 6 7 8 9 10 11 12 13 14 15 16 17 18 19 20 21 22 23 24 25 26 27 28 29 30 31 32 33 34 35 36 37 38 39 40 41 42 43 44 45 46 47 48 49 50
000
ASUS45 KBOU 281410
RWRCO

WEATHER ROUNDUP FOR COLORADO
NATIONAL WEATHER SERVICE PUEBLO CO
800 AM MDT TUE JUL 28 2015

NOTE: "FAIR" INDICATES FEW OR NO CLOUDS BELOW 12000 FEET WITH NO
SIGNIFICANT WEATHER AND/OR OBSTRUCTIONS TO VISIBILITY.

COZ001>005-013-030-031-281500-
...NORTHWEST COLORADO...

CITY           SKY/WX    TMP DP  RH WIND       PRES   REMARKS
CRAIG          SUNNY     51  37  58 CALM      30.30S
HAYDEN         SUNNY     48  32  53 CALM      30.31R
MEEKER         SUNNY     52  37  56 SE6       30.29R
MOUNT WERNER   NOT AVBL
STEAMBOAT SPGS FAIR      46  36  66 CALM      30.32S
WALDEN         FAIR      50  32  50 S5        30.34R
$$

COZ006>008-011-281500-
...WEST CENTRAL VALLEYS...

CITY           SKY/WX    TMP DP  RH WIND       PRES   REMARKS
GRAND JUNCTION SUNNY     68  35  29 CALM      30.16R
MONTROSE       SUNNY     62  36  37 SE7       30.24R
EAGLE          SUNNY     52  36  54 CALM      30.33R
RIFLE          SUNNY     57  38  48 CALM      30.23R
DELTA          NOT AVBL
NUCLA          FAIR      61  32  33 E6        30.26R
$$

COZ017>023-064>068-281500-
...SOUTHWEST COLORADO...

CITY           SKY/WX    TMP DP  RH WIND       PRES   REMARKS
DURANGO        SUNNY     59  37  44 CALM      30.24R
CORTEZ         SUNNY     59  37  44 NE3       30.20R
PAGOSA SPRINGS FAIR      58  38  46 CALM      30.32R
TELLURIDE      SUNNY     54  30  39 SE3       30.44R
WOLF CREEK PAS NOT AVBL
$$

COZ009-010-012-014-032>034-037-058>063-281500-
...CENTRAL COLORADO...

CITY           SKY/WX    TMP DP  RH WIND       PRES   REMARKS
ASPEN          SUNNY     53  35  50 CALM      30.34R
BUENA VISTA    FAIR      56  29  35 N3        30.32S
COPPER MTN     SUNNY     54  19  26 S9G22     30.57S
BERTHOUD PASS  FAIR      41  32  70 W21G38    30.60R
COTTONWOOD PAS SUNNY     61  21  21 SE5       30.44R
GUNNISON       SUNNY     46  34  61 CALM      30.38R
KREMMLING      SUNNY     50  32  50 SE3       30.37R
LEADVILLE      SUNNY     53  30  41 NE5       30.43R
MONARCH PASS   SUNNY     46  25  42 SW16      30.69S
SALIDA         FAIR      59  33  37 N3        30.36R
NIWOT RIDGE    NOT AVBL
SUNLIGHT       SUNNY     52  27  37 CALM      30.53S
WILKERSON PASS SUNNY     50  21  32 SW13G21   30.54R
$$

COZ069>075-281500-
...SAN LUIS VALLEY/SANGRE DE CRISTO MOUNTAINS...

CITY           SKY/WX    TMP DP  RH WIND       PRES   REMARKS
ALAMOSA        MOSUNNY   58  39  49 W3        30.31R
LA VETA PASS   MOSUNNY   55  36  47 MISG      30.49R
SAGUACHE       SUNNY     55  36  47 NW10      30.34R
$$

COZ035-036-038>040-281500-
...NORTHERN COLORADO FRONT RANGE...

CITY           SKY/WX    TMP DP  RH WIND       PRES   REMARKS
DENVER INTL AP MOSUNNY   64  33  31 SE13      30.14R
DMNS CITY PARK NOT AVBL
AURORA         MOSUNNY   62  34  35 SE13      30.17R
FRONT RANGE AP MOSUNNY   63  32  31 SE13      30.16R
ERIE MUNI ARPT FAIR      68  34  28 S16       30.12R
BOULDER MUN AP FAIR      66  37  34 S12G21    30.11S
CENTENNIAL     MOSUNNY   62  35  36 SE12      30.17R
BROOMFIELD     MOSUNNY   66  37  34 SE12      30.16R
LOVELAND       SUNNY     64  39  39 S9        30.13R
LONGMONT       FAIR      70  40  32 S5        30.13R
$$

COZ041-046-047-076>085-087-088-281500-
...PIKES PEAK/PALMER DIVIDE AND SOUTHERN FOOTHILLS...

CITY           SKY/WX    TMP DP  RH WIND       PRES   REMARKS
COLO. SPRINGS  MOSUNNY   64  38  38 NE12      30.20R
A. F. ACADEMY  SUNNY     62  35  36 N7        30.22R
ELLICOTT       FAIR     N/A N/A N/A NE17G25   30.17R
FALCON         FAIR      60  32  34 N10       30.25R
FORT CARSON    SUNNY     65  42  43 NW5       30.18R
LIMON          SUNNY     64  34  32 N20G29    30.15R
MONUMENT HILL  SUNNY     57  34  41 E13       30.24S
TRINIDAD       SUNNY     71  41  33 E10       30.21R
$$

COZ042>045-048>051-090-091-281500-
...NORTHEAST COLORADO...

CITY           SKY/WX    TMP DP  RH WIND       PRES   REMARKS
GREELEY ARPT   SUNNY     64  43  45 NW10      30.12R
AKRON            N/A    N/A N/A N/A MISG      30.11R
BURLINGTON     SUNNY     69  44  40 N24G31    30.06R
WRAY           FAIR      71  43  36 NW17G24   30.05R
STERLING       NOT AVBL
HOLYOKE        FAIR      70  43  37 N16G23    30.05R
FORT MORGAN    FAIR      65  34  31 N5        30.11R
$$

COZ086-089-092>099-281500-
...SOUTHEAST COLORADO...

CITY           SKY/WX    TMP DP  RH WIND       PRES   REMARKS
PUEBLO         SUNNY     74  37  26 NW8       30.12R
LA JUNTA       SUNNY     74  35  24 NE13      30.08R
LAMAR          SUNNY     73  41  31 N14       30.03R
SPRINGFIELD      N/A     71  46  40 N16       30.07R
$$



USA.gov is the U.S. government's official web portal to all federal, state and local government web resources and services.